Location: Isola Pescaroli
(45.0500°N, 10.1667°E)
Time: 02:10:07
(UTC+00:00)

SL-4 R/B - Pass Details

Date: 15 June 2021
Orbit: 428 x 662 km, 51.6° (Epoch: 29 July)

Event Time Altitude Azimuth Distance (km) Brightness Sun altitude
Exits shadow 22:37:23 12° 84° (E) 1,529 4.2 -20.9°
Drops below altitude 10° 22:37:49 10° 80° (E) 1,670 4.5 -20.9°
Sets 22:40:08 0° 68° (ENE) 2,514 5.6 -21.0°
